Location: Stull Observatory
(42.2506°N, 77.7903°W)
Time: 00:23:55
(UTC-05:00)

ISS - All Passes

Search period start: 26 February 2017 00:00
Search period end: 08 March 2017 00:00
Orbit: 399 x 408 km, 51.6° (Epoch: 26 February)

Date Brightness Start Highest point End Pass type
(mag) Time Alt. Az. Time Alt. Az. Time Alt. Az.
26 Feb - 07:06:40 10° SSW 07:09:26 25° SE 07:12:13 10° ENE daylight
26 Feb - 08:42:36 10° W 08:45:46 43° NNW 08:48:56 10° NE daylight
26 Feb - 10:20:34 10° NW 10:22:51 17° N 10:25:09 10° NE daylight
26 Feb - 11:57:46 10° NW 12:00:13 19° NNE 12:02:40 10° ENE daylight
26 Feb - 13:33:54 10° NW 13:37:11 62° NNE 13:40:26 10° ESE daylight
26 Feb - 15:11:11 10° W 15:13:19 16° SW 15:15:27 10° S daylight
27 Feb - 06:15:24 10° SSE 06:17:07 14° SE 06:18:51 10° E visible
27 Feb - 07:49:53 10° WSW 07:53:11 74° NNW 07:56:30 10° NE daylight
27 Feb - 09:27:32 10° WNW 09:30:04 20° NNW 09:32:38 10° NE daylight
27 Feb - 11:05:12 10° NW 11:07:26 17° N 11:09:39 10° NE daylight
27 Feb - 12:41:28 10° NW 12:44:34 37° NNE 12:47:40 10° E daylight
27 Feb - 14:18:03 10° WNW 14:20:58 30° SW 14:23:53 10° SSE daylight
28 Feb - 06:57:25 10° SW 07:00:40 59° SE 07:03:55 10° ENE daylight
28 Feb - 08:34:29 10° W 08:37:20 26° NNW 08:40:10 10° NE daylight
28 Feb - 10:12:28 10° NW 10:14:36 16° N 10:16:45 10° NE daylight
28 Feb - 11:49:02 10° NW 11:51:53 26° NNE 11:54:43 10° E daylight
28 Feb - 13:25:18 10° WNW 13:28:33 58° SW 13:31:46 10° SE daylight
01 Mar - 06:05:17 10° SSW 06:08:13 30° SE 06:11:10 10° ENE visible
01 Mar - 07:41:32 10° W 07:44:38 37° NNW 07:47:44 10° NE daylight
01 Mar - 09:19:33 10° NW 09:21:47 17° N 09:24:00 10° NE daylight
01 Mar - 10:56:34 10° NW 10:59:07 20° NNE 11:01:40 10° ENE daylight
01 Mar - 12:32:43 10° NW 12:36:01 75° NNE 12:39:17 10° ESE daylight
01 Mar - 14:10:25 10° W 14:12:04 13° SW 14:13:44 10° SSW daylight
02 Mar - 05:13:40 10° S 05:15:50 17° SE 05:18:01 10° E visible
02 Mar - 06:48:43 10° WSW 06:51:59 61° NNW 06:55:16 10° NE daylight
02 Mar - 08:26:30 10° WNW 08:28:57 19° NNW 08:31:24 10° NE daylight
02 Mar - 10:04:01 10° NW 10:06:19 17° N 10:08:36 10° NE daylight
02 Mar - 11:40:13 10° NW 11:43:24 43° NNE 11:46:33 10° ESE daylight
02 Mar - 13:16:58 10° WNW 13:19:43 25° SW 13:22:27 10° SSE daylight
03 Mar - 05:56:08 10° SW 05:59:25 73° SE 06:02:42 10° ENE visible
03 Mar - 07:33:24 10° WNW 07:36:09 24° NNW 07:38:54 10° NE daylight
03 Mar - 09:11:18 10° NW 09:13:27 16° N 09:15:36 10° NE daylight
03 Mar - 10:47:45 10° NW 10:50:42 29° NNE 10:53:37 10° E daylight
03 Mar - 12:24:05 10° WNW 12:27:16 47° SW 12:30:26 10° SE daylight
04 Mar - 05:03:50 10° SSW 05:06:54 37° SE 05:09:59 10° ENE visible
04 Mar - 06:40:22 10° W 06:43:23 32° NNW 06:46:25 10° NE daylight
04 Mar - 08:18:24 10° NW 08:20:35 16° N 08:22:45 10° NE daylight
04 Mar - 09:55:16 10° NW 09:57:54 22° NNE 10:00:34 10° ENE daylight
04 Mar - 11:31:26 10° NW 11:34:44 90° NNW 11:38:01 10° SE daylight
04 Mar - 13:09:51 10° WSW 13:10:42 11° SW 13:11:33 10° SW daylight
05 Mar - 04:11:58 10° S 04:14:27 20° SE 04:16:58 10° E visible
05 Mar - 05:47:28 10° WSW 05:50:41 51° NNW 05:53:55 10° NE visible
05 Mar - 07:25:20 10° NW 07:27:43 18° N 07:30:05 10° NE daylight
05 Mar - 09:02:42 10° NW 09:05:04 18° N 09:07:26 10° NE daylight
05 Mar - 10:38:52 10° NW 10:42:06 50° NNE 10:45:19 10° ESE daylight
05 Mar - 12:15:49 10° W 12:18:20 20° SW 12:20:50 10° S daylight
06 Mar - 03:21:19 10° SE 03:22:05 11° SE 03:22:51 10° ESE visible
06 Mar - 04:54:45 10° SW 04:58:03 89° SE 05:01:21 10° NE visible
06 Mar - 06:32:12 10° WNW 06:34:52 22° NNW 06:37:30 10° NE daylight
06 Mar - 08:10:01 10° NW 08:12:11 16° N 08:14:22 10° NE daylight
06 Mar - 09:46:22 10° NW 09:49:22 32° NNE 09:52:23 10° E daylight
06 Mar - 11:22:47 10° WNW 11:25:52 38° SW 11:28:56 10° SSE daylight
07 Mar - 04:02:19 10° SW 04:05:28 46° SE 04:08:39 10° ENE visible
07 Mar - 05:39:06 10° W 05:42:02 29° NNW 05:44:59 10° NE visible
07 Mar - 07:17:07 10° NW 07:19:16 16° N 07:21:25 10° NE daylight
07 Mar - 08:53:50 10° NW 08:56:35 23° NNE 08:59:19 10° ENE daylight
07 Mar - 10:30:01 10° WNW 10:33:19 75° SW 10:36:36 10° SE daylight
